Previsão horária em Celin

Hoje, 25 Julho, Domingo

Tempo Temperatura Precipitação Vento Pressão Humidade
00:00 +19°C° 0 mm 2 m/s 739 mmHg 76%
01:00 +19°C° 0 mm 3 m/s 738 mmHg 76%
02:00 +19°C° 0 mm 3 m/s 738 mmHg 76%
03:00 +19°C° 0 mm 3 m/s 738 mmHg 76%
04:00 +18°C° 0 mm 3 m/s 738 mmHg 75%
05:00 +18°C° 0 mm 3 m/s 738 mmHg 75%
06:00 +19°C° 0 mm 3 m/s 738 mmHg 73%
07:00 +19°C° 0 mm 4 m/s 738 mmHg 71%
08:00 +20°C° 0 mm 4 m/s 739 mmHg 70%
09:00 +21°C° 0 mm 4 m/s 739 mmHg 67%
10:00 +22°C° 0 mm 4 m/s 739 mmHg 64%
11:00 +23°C° 0 mm 4 m/s 739 mmHg 61%
12:00 +26°C° 0 mm 4 m/s 739 mmHg 56%
13:00 +27°C° 0 mm 4 m/s 739 mmHg 50%
14:00 +29°C° 0 mm 4 m/s 739 mmHg 45%
15:00 +29°C° 0 mm 4 m/s 739 mmHg 46%
16:00 +28°C° 0 mm 4 m/s 738 mmHg 47%
17:00 +28°C° 0 mm 4 m/s 738 mmHg 48%
18:00 +27°C° 0.1 mm 3 m/s 738 mmHg 54%
19:00 +25°C° 0.1 mm 3 m/s 738 mmHg 60%
20:00 +23°C° 0.1 mm 2 m/s 738 mmHg 67%
21:00 +22°C° 0.1 mm 3 m/s 738 mmHg 69%
22:00 +21°C° 0.1 mm 3 m/s 738 mmHg 72%
23:00 +21°C° 0.1 mm 3 m/s 738 mmHg 74%

Amanhã, 26 Julho, Segunda-feira

Tempo Temperatura Precipitação Vento Pressão Humidade
00:00 +21°C° 0 mm 3 m/s 738 mmHg 74%
01:00 +21°C° 0 mm 4 m/s 738 mmHg 73%
02:00 +21°C° 0 mm 4 m/s 738 mmHg 72%
03:00 +20°C° 0 mm 4 m/s 737 mmHg 73%
04:00 +20°C° 0 mm 4 m/s 737 mmHg 73%
05:00 +19°C° 0 mm 4 m/s 737 mmHg 74%
06:00 +20°C° 0 mm 4 m/s 737 mmHg 73%
07:00 +21°C° 0 mm 5 m/s 737 mmHg 71%
08:00 +22°C° 0 mm 5 m/s 737 mmHg 70%
09:00 +22°C° 0 mm 5 m/s 737 mmHg 69%
10:00 +22°C° 0 mm 4 m/s 738 mmHg 68%
11:00 +23°C° 0 mm 4 m/s 738 mmHg 67%
12:00 +25°C° 0 mm 4 m/s 738 mmHg 63%
13:00 +27°C° 0 mm 5 m/s 738 mmHg 58%
14:00 +28°C° 0 mm 5 m/s 738 mmHg 54%
15:00 +28°C° 0.1 mm 5 m/s 737 mmHg 54%
16:00 +29°C° 0.1 mm 5 m/s 737 mmHg 55%
17:00 +29°C° 0.1 mm 4 m/s 737 mmHg 56%
18:00 +27°C° 0.5 mm 4 m/s 737 mmHg 64%
19:00 +25°C° 0.5 mm 4 m/s 736 mmHg 73%
20:00 +23°C° 0.5 mm 4 m/s 736 mmHg 81%
21:00 +22°C° 1.5 mm 4 m/s 736 mmHg 85%
22:00 +21°C° 1.5 mm 4 m/s 737 mmHg 89%
23:00 +20°C° 1.5 mm 4 m/s 737 mmHg 94%

Depois de amanhã, 27 Julho, Terça-feira

Tempo Temperatura Precipitação Vento Pressão Humidade
00:00 +20°C° 0.1 mm 4 m/s 737 mmHg 94%
01:00 +19°C° 0.1 mm 3 m/s 736 mmHg 94%
02:00 +19°C° 0.1 mm 3 m/s 736 mmHg 95%
03:00 +19°C° 0 mm 2 m/s 736 mmHg 94%
04:00 +19°C° 0 mm 2 m/s 736 mmHg 94%
05:00 +18°C° 0 mm 2 m/s 736 mmHg 93%
06:00 +20°C° 0.1 mm 2 m/s 736 mmHg 89%
07:00 +21°C° 0.1 mm 2 m/s 736 mmHg 84%
08:00 +24°C° 0.1 mm 2 m/s 736 mmHg 80%
09:00 +25°C° 0 mm 2 m/s 737 mmHg 74%
10:00 +26°C° 0 mm 2 m/s 737 mmHg 69%
11:00 +28°C° 0 mm 2 m/s 737 mmHg 64%
12:00 +28°C° 0.5 mm 2 m/s 737 mmHg 65%
13:00 +28°C° 0.5 mm 3 m/s 737 mmHg 65%
14:00 +28°C° 0.5 mm 3 m/s 737 mmHg 66%
15:00 +28°C° 1.2 mm 3 m/s 737 mmHg 66%
16:00 +28°C° 1.2 mm 3 m/s 737 mmHg 67%
17:00 +27°C° 1.2 mm 3 m/s 737 mmHg 67%
18:00 +26°C° 0.2 mm 2 m/s 737 mmHg 72%
19:00 +25°C° 0.2 mm 2 m/s 737 mmHg 77%
20:00 +24°C° 0.2 mm 1 m/s 737 mmHg 81%
21:00 +23°C° 0.1 mm 1 m/s 737 mmHg 83%
22:00 +22°C° 0.1 mm 1 m/s 737 mmHg 85%
23:00 +21°C° 0.1 mm 1 m/s 738 mmHg 86%

28 Julho, Quarta-feira

Tempo Temperatura Precipitação Vento Pressão Humidade
00:00 +21°C° 0.3 mm 1 m/s 738 mmHg 87%
01:00 +21°C° 0.3 mm 1 m/s 738 mmHg 88%
02:00 +20°C° 0.3 mm 1 m/s 738 mmHg 89%
03:00 +20°C° 0 mm 1 m/s 738 mmHg 89%
04:00 +20°C° 0 mm 1 m/s 738 mmHg 89%
05:00 +19°C° 0 mm 2 m/s 738 mmHg 89%
06:00 +20°C° 0 mm 2 m/s 738 mmHg 84%
07:00 +23°C° 0 mm 2 m/s 738 mmHg 79%
08:00 +24°C° 0 mm 2 m/s 738 mmHg 74%
09:00 +26°C° 0 mm 2 m/s 738 mmHg 66%
10:00 +28°C° 0 mm 2 m/s 738 mmHg 58%
11:00 +29°C° 0 mm 1 m/s 738 mmHg 49%
12:00 +30°C° 0 mm 1 m/s 738 mmHg 47%
13:00 +30°C° 0 mm 1 m/s 738 mmHg 45%
14:00 +31°C° 0 mm 1 m/s 738 mmHg 43%
15:00 +31°C° 0 mm 2 m/s 737 mmHg 45%
16:00 +31°C° 0 mm 2 m/s 737 mmHg 46%
17:00 +30°C° 0 mm 2 m/s 736 mmHg 48%
18:00 +27°C° 0.7 mm 2 m/s 736 mmHg 62%
19:00 +25°C° 0.7 mm 2 m/s 736 mmHg 75%
20:00 +21°C° 0.7 mm 2 m/s 736 mmHg 89%
21:00 +20°C° 0 mm 2 m/s 736 mmHg 90%
22:00 +21°C° 0 mm 1 m/s 736 mmHg 91%
23:00 +21°C° 0 mm 1 m/s 736 mmHg 91%

29 Julho, Quinta-feira

Tempo Temperatura Precipitação Vento Pressão Humidade
00:00 +21°C° 0 mm 1 m/s 736 mmHg 92%
01:00 +20°C° 0 mm 1 m/s 736 mmHg 92%
02:00 +20°C° 0 mm 1 m/s 736 mmHg 93%
03:00 +19°C° 0.2 mm 2 m/s 737 mmHg 94%
04:00 +18°C° 0.2 mm 2 m/s 737 mmHg 95%
05:00 +18°C° 0.2 mm 3 m/s 737 mmHg 96%
06:00 +19°C° 0.1 mm 3 m/s 737 mmHg 93%
07:00 +19°C° 0.1 mm 4 m/s 737 mmHg 90%
08:00 +20°C° 0.1 mm 5 m/s 737 mmHg 86%
09:00 +21°C° 0 mm 4 m/s 738 mmHg 82%
10:00 +21°C° 0 mm 4 m/s 738 mmHg 78%
11:00 +22°C° 0 mm 4 m/s 738 mmHg 74%
12:00 +23°C° 0 mm 4 m/s 738 mmHg 72%
13:00 +23°C° 0 mm 4 m/s 738 mmHg 69%
14:00 +25°C° 0 mm 4 m/s 738 mmHg 67%
15:00 +25°C° 0 mm 4 m/s 738 mmHg 65%
16:00 +26°C° 0 mm 3 m/s 738 mmHg 62%
17:00 +26°C° 0 mm 3 m/s 738 mmHg 60%
18:00 +25°C° 0 mm 3 m/s 738 mmHg 65%
19:00 +23°C° 0 mm 2 m/s 738 mmHg 70%
20:00 +22°C° 0 mm 1 m/s 738 mmHg 75%
21:00 +21°C° 0 mm 1 m/s 738 mmHg 77%
22:00 +21°C° 0 mm 1 m/s 738 mmHg 78%
23:00 +20°C° 0 mm 1 m/s 738 mmHg 80%

30 Julho, Sexta-feira

Tempo Temperatura Precipitação Vento Pressão Humidade
00:00 +20°C° 0 mm 1 m/s 737 mmHg 81%
01:00 +19°C° 0 mm 1 m/s 737 mmHg 83%
02:00 +19°C° 0 mm 1 m/s 737 mmHg 84%
03:00 +19°C° 0 mm 1 m/s 737 mmHg 86%
04:00 +17°C° 0 mm 2 m/s 737 mmHg 88%
05:00 +17°C° 0 mm 2 m/s 737 mmHg 89%
06:00 +19°C° 0 mm 2 m/s 737 mmHg 83%
07:00 +21°C° 0 mm 2 m/s 737 mmHg 77%
08:00 +23°C° 0 mm 2 m/s 737 mmHg 71%
09:00 +25°C° 0 mm 2 m/s 737 mmHg 65%
10:00 +26°C° 0 mm 2 m/s 737 mmHg 58%
11:00 +28°C° 0 mm 3 m/s 737 mmHg 52%
12:00 +28°C° 0 mm 3 m/s 736 mmHg 50%
13:00 +29°C° 0 mm 3 m/s 736 mmHg 47%
14:00 +30°C° 0 mm 3 m/s 736 mmHg 44%
15:00 +30°C° 0 mm 3 m/s 735 mmHg 45%
16:00 +31°C° 0 mm 3 m/s 735 mmHg 46%
17:00 +31°C° 0 mm 3 m/s 735 mmHg 46%
18:00 +29°C° 0 mm 3 m/s 734 mmHg 53%
19:00 +27°C° 0 mm 3 m/s 734 mmHg 61%
20:00 +26°C° 0 mm 3 m/s 733 mmHg 68%
21:00 +23°C° 0.5 mm 4 m/s 733 mmHg 73%
22:00 +22°C° 0.5 mm 5 m/s 734 mmHg 79%
23:00 +21°C° 0.5 mm 6 m/s 734 mmHg 84%
Mostrar mais

Necessitamos do seu Consentimento

A Meteoprog e os seus Fornecedores de Serviços podem armazenar e aceder a dados pessoais como cookies, identificadores do dispositivo ou outras tecnologias semelhantes existentes no seu dispositivo e processar estes dados para personalizar conteúdos e anúncios, assim como funcionalidades nas redes sociais e análise de tráfego.

  • Armazenar e/ou aceder a informações no seu dispositivo

    Os cookies, identificadores do dispositivo ou outras informações podem ser armazenados ou acedidos no seu dispositivo, para os fins acima indicados.

  • Anúncios e conteúdos personalizados, medição de anúncios e conteúdos, dados sobre o público-alvo e desenvolvimento de produtos

    Os anúncios e os conteúdos podem ser personalizados com base num perfil. Podem ser adicionados dados adicionais para uma maior personalização dos anúncios e dos conteúdos. A eficácia dos anúncios e dos conteúdos pode ser medida. Podem ser obtidas informações sobre o público que visualizou os anúncios e os conteúdos. Estes dados podem ser usados para desenvolver ou melhorar sistemas, softwares ou a experiência do utilizador.

Ao clicar em "Eu concordo”, permitirá o uso de cookies, identificadores do dispositivo e web beacons mencionados ou outras tecnologias semelhantes. As configurações do navegador do seu dispositivo podem ser alteradas.

Para certos fins, podem ser invocados interesses legítimos ao invés de consentimento. Pode ler mais informação sobre este assunto na nossa Política de Privacidade e Cookies.